Flag for Taiwan Weather past 2 weeks in Taichung, Taiwan

Now
61 °F

Drizzle. Fog.


Feels Like: 61 °F
Forecast: 67 / 76 °F
Wind: 20 mph from Northeast

Location: Chiang Kai Shek

Current Time: Feb 28, 2015 at 12:23:39 AM

Latest Report: Feb 28, 2015 at 12:00 AM


Visibility: 3 mi

Pressure: 30.12 "Hg

Humidity: 94%

Dew point: 59 °F

Location of TaichungLocation

Historic Weather in Taichung — Graph

°F

Taichung temperature yesterday

Maximum temperature yesterday: 72 °F (at 12:30 PM)
Minimum temperature yesterday: 61 °F (at 7:30 PM)
Average temperature yesterday: 64 °F

Past Weeks' High & Low Weather Summary

 TemperatureHumidityPressure
High81 °F (Feb 21, 1:00 PM)100% (Feb 23, 7:45 PM)30.24 "Hg (Feb 23, 7:45 PM)
Low55 °F (Feb 13, 6:00 AM)22% (Feb 13, 1:00 PM)29.89 "Hg (Feb 25, 2:00 PM)
Average64 °F77%30.04 "Hg
* Reported Feb 12 11:00 PM — Feb 27 11:00 PM, Taichung, Weather by CustomWeather, © 2015

Note: Actual official high and low records may vary slightly from our data, if they occured in-between our weather recording intervals... More about our weather records

Advertising

Taichung weather history for previous 24 hours

 ConditionsComfort  
Time TempWeatherWind HumidityBarometerVisibility
11:00 PM
Fri, Feb 27
61 °FDrizzle. Fog.17 mph94%30.12 "Hg3 mi
10:30 PM61 °FDrizzle. Fog.18 mph94%30.12 "Hg3 mi
10:00 PM61 °FDrizzle. Fog.18 mph94%30.12 "Hg3 mi
9:51 PM61 °FDrizzle. Fog.17 mph94%30.12 "Hg3 mi
9:30 PM61 °FPartly cloudy.15 mph94%30.12 "Hg4 mi
9:00 PM63 °FPartly cloudy.13 mph88%30.12 "Hg4 mi
8:30 PM63 °FDrizzle. Overcast.18 mph88%30.09 "Hg4 mi
8:00 PM63 °FDrizzle. Overcast.17 mph88%30.09 "Hg5 mi
7:30 PM61 °FDrizzle. Overcast.20 mph94%30.09 "Hg5 mi
7:00 PM63 °FDrizzle. Overcast.22 mph88%30.07 "Hg4 mi
6:30 PM63 °FDrizzle. Overcast.20 mph88%30.07 "Hg4 mi
6:00 PM63 °FDrizzle. Overcast.20 mph88%30.04 "Hg4 mi
5:51 PM63 °FDrizzle. Mostly cloudy.21 mph88%30.04 "Hg4 mi
5:30 PM63 °FFog.20 mph94%30.04 "Hg3 mi
5:00 PM63 °FFog.18 mph94%30.01 "Hg3 mi
4:30 PM63 °FFog.18 mph94%30.01 "Hg2 mi
4:00 PM64 °FFog.17 mph94%29.98 "Hg2 mi
3:30 PM64 °FFog.20 mph94%29.98 "Hg2 mi
3:00 PM66 °FFog.21 mph88%29.98 "Hg3 mi
2:30 PM66 °FFog.21 mph88%29.98 "Hg3 mi
2:00 PM68 °FBroken clouds.22 mph83%29.98 "Hg4 mi
1:30 PM68 °FBroken clouds.24 mph83%29.98 "HgN/A
1:00 PM70 °FPartly sunny.22 mph78%29.98 "HgN/A
12:30 PM72 °FPartly sunny.25 mph73%30.01 "HgN/A
11:30 AM70 °FPartly sunny.21 mph78%30.04 "HgN/A
10:30 AM70 °FBroken clouds.20 mph78%30.07 "HgN/A
10:00 AM66 °FPartly sunny.20 mph88%30.09 "HgN/A
9:30 AM66 °FPartly sunny.21 mph88%30.09 "HgN/A
9:00 AM66 °FPartly sunny.18 mph88%30.09 "HgN/A
8:30 AM64 °FPartly sunny.20 mph94%30.09 "HgN/A
8:00 AM63 °FPartly sunny.18 mph94%30.09 "Hg6 mi
7:30 AM63 °FPartly sunny.17 mph94%30.09 "Hg5 mi
7:00 AM63 °FPartly sunny.20 mph94%30.09 "HgN/A
6:30 AM63 °FPartly sunny.20 mph94%30.09 "HgN/A
6:00 AM63 °FPartly cloudy.18 mph94%30.09 "HgN/A
5:30 AM63 °FPartly cloudy.22 mph94%30.07 "HgN/A
5:00 AM63 °FPartly cloudy.18 mph94%30.07 "HgN/A
4:30 AM63 °FPartly cloudy.17 mph94%30.07 "HgN/A
4:00 AM63 °FPartly cloudy.18 mph94%30.04 "HgN/A
3:30 AM63 °FPartly cloudy.17 mph94%30.04 "HgN/A
3:00 AM63 °FPartly cloudy.17 mph94%30.04 "HgN/A
2:30 AM63 °FPartly cloudy.17 mph94%30.07 "HgN/A
2:00 AM63 °FPartly cloudy.17 mph94%30.07 "HgN/A
1:30 AM63 °FPartly cloudy.17 mph94%30.07 "HgN/A
1:00 AM63 °FOvercast.20 mph94%30.07 "HgN/A
12:30 AM63 °FOvercast.20 mph94%30.07 "Hg5 mi
12:00 AM63 °FOvercast.18 mph94%30.07 "Hg4 mi
Weather by CustomWeather, © 2015

See weather overviewHow to use our weather pages